SEH6EV EDDF-LGAV

Flight info

Callsign SEH6EV
Flight time N/A
Altitude 39000
Route CINDY8S/18 CINDY Z74 LAMPU DCT NOMBO Y161 MAH DCT VAVOR DCT RADIZ DCT NEMEK DCT ELTIB DCT PINDO DCT PIKOS UL607 XORKI
Aircraft A320/M-SDE3FGHIRWY/LB1

Departure

Time 2026-04-14 15:49
Airport Frankfurt Main Airport (EDDF)

Arrival

Time N/A
Airport Athens Eleftherios Venizelos International Airport (LGAV)
Time Latitude Longitude Altitude Speed Heading
2026-04-14 15:11 50.05029 8.58531 360 ft 0 kts 340°
2026-04-14 15:32 50.05024 8.58533 359 ft 3 kts 339°
2026-04-14 15:32 50.05002 8.58546 363 ft 3 kts 339°
2026-04-14 15:33 50.04980 8.58560 364 ft 3 kts 339°
2026-04-14 15:33 50.04958 8.58573 363 ft 3 kts 334°
2026-04-14 15:33 50.04941 8.58597 361 ft 3 kts 285°
2026-04-14 15:33 50.04941 8.58633 359 ft 3 kts 252°
2026-04-14 15:34 50.04940 8.58629 359 ft 0 kts 249°
2026-04-14 15:37 50.04937 8.58618 359 ft 6 kts 249°
2026-04-14 15:37 50.04902 8.58470 366 ft 18 kts 250°
2026-04-14 15:37 50.04862 8.58298 360 ft 15 kts 250°
2026-04-14 15:38 50.04831 8.58171 359 ft 11 kts 248°
2026-04-14 15:38 50.04796 8.58029 362 ft 19 kts 244°
2026-04-14 15:38 50.04697 8.57853 360 ft 22 kts 246°
2026-04-14 15:38 50.04643 8.57632 362 ft 22 kts 250°
2026-04-14 15:39 50.04589 8.57405 361 ft 23 kts 249°
2026-04-14 15:39 50.04532 8.57167 358 ft 23 kts 250°
2026-04-14 15:39 50.04506 8.57059 360 ft 2 kts 250°
2026-04-14 15:39 50.04505 8.57054 359 ft 0 kts 250°
2026-04-14 15:40 50.04496 8.57017 361 ft 9 kts 249°
2026-04-14 15:40 50.04478 8.56938 363 ft 6 kts 250°
2026-04-14 15:40 50.04434 8.56851 363 ft 17 kts 194°
2026-04-14 15:40 50.04305 8.56815 360 ft 19 kts 193°
2026-04-14 15:41 50.04224 8.56683 363 ft 19 kts 248°
2026-04-14 15:41 50.04173 8.56467 360 ft 23 kts 249°
2026-04-14 15:41 50.04114 8.56222 354 ft 25 kts 249°
2026-04-14 15:41 50.04051 8.55964 354 ft 26 kts 250°
2026-04-14 15:42 50.03987 8.55696 352 ft 27 kts 250°
2026-04-14 15:42 50.03923 8.55422 356 ft 27 kts 250°
2026-04-14 15:42 50.03858 8.55156 352 ft 25 kts 249°
2026-04-14 15:42 50.03811 8.54954 349 ft 18 kts 251°
2026-04-14 15:43 50.03765 8.54767 357 ft 19 kts 250°
2026-04-14 15:43 50.03720 8.54575 353 ft 19 kts 249°
2026-04-14 15:43 50.03713 8.54396 349 ft 17 kts 319°
2026-04-14 15:43 50.03807 8.54295 348 ft 18 kts 290°
2026-04-14 15:44 50.03764 8.54077 353 ft 24 kts 250°
2026-04-14 15:44 50.03696 8.53789 344 ft 33 kts 249°
2026-04-14 15:44 50.03620 8.53483 337 ft 30 kts 250°
2026-04-14 15:44 50.03546 8.53174 334 ft 31 kts 250°
2026-04-14 15:45 50.03481 8.52911 335 ft 21 kts 247°
2026-04-14 15:45 50.03441 8.52761 334 ft 11 kts 248°
2026-04-14 15:45 50.03431 8.52722 331 ft 0 kts 249°
2026-04-14 15:47 50.03428 8.52710 332 ft 8 kts 249°
2026-04-14 15:47 50.03400 8.52601 333 ft 6 kts 235°
2026-04-14 15:47 50.03365 8.52593 335 ft 4 kts 178°
2026-04-14 15:48 50.03363 8.52593 335 ft 4 kts 178°
2026-04-14 15:48 50.03062 8.52597 335 ft 81 kts 179°
2026-04-14 15:48 50.02287 8.52605 332 ft 139 kts 179°
2026-04-14 15:49 50.01164 8.52615 351 ft 182 kts 179°
2026-04-14 15:49 49.99857 8.52636 848 ft 190 kts 180°
2026-04-14 15:49 49.98504 8.52636 1523 ft 196 kts 179°
2026-04-14 15:49 49.97141 8.52787 2188 ft 198 kts 162°
2026-04-14 15:50 49.95999 8.54046 2524 ft 214 kts 120°
2026-04-14 15:50 49.95301 8.56183 3003 ft 227 kts 115°
2026-04-14 15:50 49.94567 8.58386 3718 ft 233 kts 115°
2026-04-14 15:50 49.94057 8.60771 3957 ft 241 kts 94°
2026-04-14 15:51 49.93946 8.63481 4008 ft 257 kts 91°
2026-04-14 15:51 49.93842 8.66264 4009 ft 260 kts 92°
2026-04-14 15:51 49.93379 8.68970 4033 ft 265 kts 116°
2026-04-14 15:51 49.92192 8.71185 4806 ft 271 kts 140°
2026-04-14 15:52 49.90663 8.72924 5713 ft 273 kts 142°
2026-04-14 15:52 49.89135 8.74685 6573 ft 275 kts 136°
2026-04-14 15:52 49.87906 8.76945 7346 ft 275 kts 119°
2026-04-14 15:52 49.86965 8.79546 8144 ft 279 kts 118°
2026-04-14 15:53 49.86029 8.82155 8892 ft 283 kts 119°
2026-04-14 15:53 49.85065 8.84837 9658 ft 287 kts 120°
2026-04-14 15:53 49.84082 8.87552 10375 ft 293 kts 121°
2026-04-14 15:53 49.83041 8.90412 10594 ft 316 kts 121°
2026-04-14 15:54 49.80715 8.96782 10886 ft 361 kts 121°
2026-04-14 15:54 49.79457 9.00222 11352 ft 370 kts 120°
2026-04-14 15:54 49.78183 9.03714 11975 ft 375 kts 121°
2026-04-14 15:55 49.76900 9.07271 12610 ft 380 kts 118°
2026-04-14 15:55 49.75913 9.11031 13213 ft 386 kts 107°
2026-04-14 15:55 49.75215 9.15060 13826 ft 390 kts 108°
2026-04-14 15:55 49.74147 9.18922 14371 ft 393 kts 120°
2026-04-14 15:56 49.72615 9.22418 14942 ft 394 kts 130°
2026-04-14 15:56 49.70803 9.25620 15524 ft 397 kts 132°
2026-04-14 15:56 49.68971 9.28841 16079 ft 400 kts 132°
2026-04-14 15:56 49.67135 9.32074 16627 ft 402 kts 132°
2026-04-14 15:57 49.65281 9.35344 17164 ft 405 kts 132°
2026-04-14 15:57 49.63422 9.38619 17711 ft 407 kts 133°
2026-04-14 15:57 49.61358 9.41619 18237 ft 409 kts 143°
2026-04-14 15:57 49.58987 9.44061 18717 ft 411 kts 150°
2026-04-14 15:58 49.56519 9.46305 19168 ft 413 kts 150°
2026-04-14 15:58 49.54035 9.48564 19616 ft 415 kts 150°
2026-04-14 15:58 49.51543 9.50837 20053 ft 417 kts 150°
2026-04-14 15:58 49.49042 9.53121 20489 ft 420 kts 150°
2026-04-14 15:59 49.46522 9.55425 20921 ft 422 kts 150°
2026-04-14 15:59 49.43988 9.57738 21349 ft 424 kts 151°
2026-04-14 15:59 49.41446 9.60053 21757 ft 427 kts 151°
2026-04-14 15:59 49.38881 9.62384 22166 ft 429 kts 151°
2026-04-14 16:00 49.36301 9.64723 22559 ft 432 kts 151°
2026-04-14 16:00 49.33813 9.67326 22933 ft 436 kts 142°
2026-04-14 16:00 49.31582 9.70497 23302 ft 440 kts 136°
2026-04-14 16:00 49.29443 9.73783 23668 ft 442 kts 137°
2026-04-14 16:01 49.27259 9.77126 24010 ft 444 kts 137°
2026-04-14 16:01 49.25067 9.80471 24341 ft 446 kts 137°
2026-04-14 16:01 49.22858 9.83836 24668 ft 448 kts 137°
2026-04-14 16:01 49.20645 9.87196 24991 ft 450 kts 137°
2026-04-14 16:02 49.18418 9.90568 25305 ft 451 kts 137°
2026-04-14 16:02 49.16185 9.93944 25602 ft 453 kts 137°
2026-04-14 16:02 49.13940 9.97336 25896 ft 455 kts 137°
2026-04-14 16:02 49.11689 10.00737 26178 ft 456 kts 137°
2026-04-14 16:03 49.09428 10.04151 26452 ft 458 kts 136°
2026-04-14 16:03 49.07158 10.07577 26729 ft 459 kts 136°
2026-04-14 16:03 49.04874 10.10994 27006 ft 461 kts 137°
2026-04-14 16:03 49.02542 10.14371 27283 ft 462 kts 138°
2026-04-14 16:04 49.00180 10.17705 27539 ft 464 kts 139°
2026-04-14 16:04 48.97791 10.21027 27826 ft 464 kts 139°
2026-04-14 16:04 48.95407 10.24330 28226 ft 463 kts 139°
2026-04-14 16:04 48.93028 10.27639 28618 ft 462 kts 139°
2026-04-14 16:05 48.90667 10.30944 29005 ft 461 kts 139°
2026-04-14 16:05 48.88350 10.34208 29413 ft 459 kts 138°
2026-04-14 16:05 48.85980 10.37554 29811 ft 458 kts 138°
2026-04-14 16:05 48.83681 10.40801 30195 ft 457 kts 138°
2026-04-14 16:06 48.81381 10.44142 30529 ft 457 kts 136°
2026-04-14 16:06 48.79160 10.47587 30822 ft 457 kts 135°
2026-04-14 16:06 48.76991 10.51106 31111 ft 457 kts 134°
2026-04-14 16:06 48.74845 10.54653 31390 ft 457 kts 134°
2026-04-14 16:07 48.72694 10.58201 31676 ft 457 kts 134°
2026-04-14 16:07 48.70536 10.61724 31981 ft 456 kts 134°
2026-04-14 16:07 48.68360 10.65225 32294 ft 456 kts 134°
2026-04-14 16:07 48.66179 10.68696 32593 ft 455 kts 135°
2026-04-14 16:08 48.63993 10.72151 32881 ft 455 kts 135°
2026-04-14 16:08 48.61806 10.75598 33170 ft 454 kts 135°
2026-04-14 16:08 48.59625 10.79036 33474 ft 453 kts 135°
2026-04-14 16:08 48.57447 10.82479 33774 ft 453 kts 134°
2026-04-14 16:09 48.55285 10.85928 34068 ft 452 kts 134°
2026-04-14 16:09 48.53134 10.89376 34330 ft 452 kts 134°
2026-04-14 16:09 48.50977 10.92830 34562 ft 451 kts 134°
2026-04-14 16:09 48.48824 10.96280 34795 ft 451 kts 134°
2026-04-14 16:10 48.46658 10.99714 35028 ft 451 kts 135°
2026-04-14 16:10 48.44478 11.03122 35238 ft 451 kts 135°
2026-04-14 16:10 48.42293 11.06508 35457 ft 451 kts 135°
2026-04-14 16:10 48.40103 11.09897 35656 ft 451 kts 135°
2026-04-14 16:11 48.37914 11.13283 35840 ft 452 kts 135°
2026-04-14 16:11 48.35723 11.16677 36029 ft 452 kts 135°
2026-04-14 16:11 48.33533 11.20070 36224 ft 452 kts 135°
2026-04-14 16:11 48.31344 11.23459 36416 ft 452 kts 135°
2026-04-14 16:12 48.29155 11.26843 36595 ft 452 kts 135°
2026-04-14 16:12 48.27011 11.30290 36769 ft 452 kts 130°
2026-04-14 16:12 48.26377 11.31495 36825 ft 453 kts 127°
2026-04-14 16:12 48.24758 11.35257 36977 ft 454 kts 121°
2026-04-14 16:13 48.23183 11.39366 37149 ft 454 kts 121°
2026-04-14 16:13 48.20045 11.47513 37188 ft 454 kts 121°
2026-04-14 16:14 48.16873 11.55697 37189 ft 454 kts 121°
2026-04-14 16:14 48.13701 11.63860 37187 ft 453 kts 121°
2026-04-14 16:15 48.10518 11.71994 37188 ft 453 kts 121°
2026-04-14 16:15 48.07340 11.80111 37189 ft 452 kts 121°
2026-04-14 16:16 48.04162 11.88221 37185 ft 452 kts 121°
2026-04-14 16:16 48.00985 11.96309 37184 ft 451 kts 122°
2026-04-14 16:17 47.97797 12.04385 37188 ft 451 kts 122°
2026-04-14 16:17 47.94581 12.12427 37181 ft 450 kts 126°
2026-04-14 16:18 47.90422 12.19235 37187 ft 447 kts 142°
2026-04-14 16:18 47.85653 12.25176 37183 ft 447 kts 141°
2026-04-14 16:19 47.80893 12.31126 37183 ft 447 kts 141°
2026-04-14 16:19 47.76983 12.36022 37186 ft 447 kts 141°
2026-04-14 16:20 47.72501 12.41616 37185 ft 446 kts 141°
2026-04-14 16:20 47.68340 12.46782 37185 ft 446 kts 141°
2026-04-14 16:21 47.63882 12.52306 37183 ft 446 kts 141°
2026-04-14 16:21 47.59218 12.58365 37182 ft 446 kts 138°
2026-04-14 16:22 47.54781 12.64772 37179 ft 446 kts 136°
2026-04-14 16:22 47.50366 12.71219 37172 ft 445 kts 137°
2026-04-14 16:23 47.45904 12.77569 37169 ft 445 kts 137°
2026-04-14 16:23 47.41432 12.83815 37162 ft 445 kts 138°
2026-04-14 16:24 47.36930 12.90087 37156 ft 445 kts 138°
2026-04-14 16:24 47.32447 12.96359 37152 ft 444 kts 138°
2026-04-14 16:25 47.27962 13.02632 37145 ft 444 kts 138°
2026-04-14 16:25 47.24152 13.07950 37141 ft 443 kts 138°
2026-04-14 16:26 47.20499 13.13023 37134 ft 443 kts 138°
2026-04-14 16:26 47.16038 13.19196 37129 ft 442 kts 138°
2026-04-14 16:27 47.11561 13.25386 37122 ft 442 kts 138°
2026-04-14 16:27 47.07078 13.31575 37118 ft 442 kts 138°
2026-04-14 16:28 47.02601 13.37739 37115 ft 442 kts 138°
2026-04-14 16:28 46.98107 13.43900 37112 ft 442 kts 138°
2026-04-14 16:29 46.93613 13.50051 37108 ft 442 kts 139°
2026-04-14 16:29 46.89126 13.56197 37104 ft 442 kts 139°
2026-04-14 16:30 46.84637 13.62324 37105 ft 441 kts 139°
2026-04-14 16:30 46.80169 13.68392 37108 ft 441 kts 139°
2026-04-14 16:31 46.75664 13.74492 37104 ft 441 kts 139°
2026-04-14 16:31 46.71163 13.80572 37105 ft 441 kts 139°
2026-04-14 16:32 46.66672 13.86640 37108 ft 440 kts 139°
2026-04-14 16:32 46.62934 13.91675 37115 ft 440 kts 139°
2026-04-14 16:33 46.58443 13.97711 37120 ft 439 kts 139°
2026-04-14 16:33 46.53951 14.03732 37122 ft 439 kts 139°
2026-04-14 16:34 46.49462 14.09728 37124 ft 439 kts 139°
2026-04-14 16:34 46.44967 14.15736 37121 ft 439 kts 139°
2026-04-14 16:35 46.41253 14.20679 37117 ft 438 kts 139°
2026-04-14 16:35 46.36758 14.26656 37110 ft 438 kts 139°
2026-04-14 16:36 46.32294 14.32593 37107 ft 438 kts 139°
2026-04-14 16:36 46.27792 14.38541 37110 ft 438 kts 140°
2026-04-14 16:37 46.23292 14.44475 37109 ft 438 kts 140°
2026-04-14 16:37 46.18796 14.50403 37110 ft 437 kts 140°
2026-04-14 16:38 46.14288 14.56316 37110 ft 437 kts 140°
2026-04-14 16:38 46.09777 14.62217 37106 ft 437 kts 140°
2026-04-14 16:39 46.05303 14.68064 37108 ft 438 kts 140°
2026-04-14 16:39 46.02409 14.71843 37109 ft 437 kts 140°
2026-04-14 16:40 45.97893 14.77715 37108 ft 437 kts 140°
2026-04-14 16:40 45.93389 14.83595 37113 ft 437 kts 140°
2026-04-14 16:41 45.88875 14.89441 37114 ft 437 kts 140°
2026-04-14 16:41 45.88114 14.90424 37112 ft 437 kts 140°